Welcome to the New NWS' Forecast!
Most changes are behind the scenes, but click here for differences you might notice.

Regional Weather Roundup (RWR)

Issued by National Weather Service (NWS)

                            
014 
ASUS43 KMPX 150501
RWRMN 
WEATHER ROUNDUP FOR MINNESOTA
NATIONAL WEATHER SERVICE TWIN CITIES/CHANHASSEN MN
1200 AM CDT WED AUG 15 2018


NOTE: "FAIR" INDICATES FEW OR NO CLOUDS BELOW 12,000 FEET WITH NO
SIGNIFICANT WEATHER AND/OR OBSTRUCTIONS TO VISIBILITY. N/A MEANS
CURRENT SKY AND/OR WEATHER CONDITIONS ARE NOT AVAILABLE.

MNZ060>063-068>070-150600-
   Twin Cities Metro   
  
CITY           SKY/WX    TMP DP  RH WIND       PRES   REMARKS
TWIN CITIES    CLOUDY    74  65  73 N9        29.92F                  
ST PAUL        FAIR      73  63  70 N7        29.92F                  
CRYSTAL        CLOUDY    72  63  73 N7        29.93R                  
BLAINE         MOCLDY    72  64  78 N5        29.94S                  
LAKEVILLE      FAIR      73  70  88 N6        29.93S                  
EDEN PRAIRIE   FAIR      73  63  70 N8        29.92S                  
SOUTH ST PAUL  FAIR      74  62  67 N7        29.92S                  
LAKE ELMO      FAIR      70  64  83 N6        29.94S                  
$$
MNZ001>005-007-008-013>017-022>024-027-028-150600-
   Northwest Minnesota   
  
CITY           SKY/WX    TMP DP  RH WIND       PRES   REMARKS
BEMIDJI        FAIR      55  51  86 CALM      30.01R                  
HALLOCK        FAIR      52  48  87 CALM      30.00S                  
ROSEAU         FAIR      48  45  87 CALM      30.01S                  
WARROAD        FAIR      52  48  87 CALM      30.02R                  
THIEF RVR FALL FAIR      54  48  80 CALM      30.02S                  
CROOKSTON      FAIR      55  48  76 SE3         N/A                   
FOSSTON        FAIR      48  45  87 CALM      30.02S                  
DETROIT LAKES  FAIR      61  50  67 CALM      30.01F                  
MOORHEAD       FAIR      59  54  82 NE3       30.00F                  
PARK RAPIDS    FAIR      57  53  86 NW6       29.99S                  
MAHNOMEN       FAIR      54  50  86 NE3       30.02R                  
$$
MNZ006-009>011-018-025>026-150600-
   North Central Minnesota   
  
CITY           SKY/WX    TMP DP  RH WIND       PRES   REMARKS
BAUDETTE       CLOUDY    61  53  75 W3        30.01R                  
FLAG ISLAND    CLOUDY    61  52  72 W10       29.99S                  
INTL FALLS     MOCLDY    54  52  93 NW5       30.01R                  
WASKISH        FAIR      54  50  87 CALM      30.01S                  
BIG FORK       FAIR      52  50  93 CALM      30.00S                  
LONGVILLE      FAIR      59  57  94 CALM      29.99R                  
GRAND RAPIDS   FAIR      59  56  89 N3        30.00S                  
ORR            FAIR      55  52  88 CALM      29.96F                  
COOK           FAIR      54  52  94 CALM      29.98F                  
WALKER         FAIR      56  55  96 CALM      30.00R                  
$$
MNZ012-019>021-037-150600-
   Northeast Minnesota   
  
CITY           SKY/WX    TMP DP  RH WIND       PRES   REMARKS
DULUTH         FAIR      63  59  87 N6        29.95S                  
ELY            FAIR      52  52 100 CALM      29.97F                  
HIBBING        FAIR      53  52  96 NW5       29.97F                  
EVELETH        FAIR      55  53  95 CALM      29.98F                  
DULUTH HARBOR  MOCLDY    72  64  78 N8        29.93S                  
TWO HARBORS    FAIR      64  55  72 N3        29.93S                  
SILVER BAY     FAIR      63  57  82 N3        29.93S                  
GRAND MARAIS     N/A     63  58  83 NE9       29.95S                  
G MARAIS ARPRT MOCLDY    57  54  88 NE6       29.99S                  
$$
MNZ029>031-032-039>041-046>048-054>057-064-150600-
   West Central Minnesota   
  
CITY           SKY/WX    TMP DP  RH WIND       PRES   REMARKS
FERGUS FALLS   FAIR      63  55  77 N5        30.00S                  
WHEATON        MOCLDY    63  55  77 N5        30.00S                  
MORRIS         MOCLDY    64  64 100 N6        29.96S                  
ALEXANDRIA     CLOUDY    70  60  70 NE6       29.98F                  
ELBOW LAKE     CLOUDY    63  58  83 N5        29.99R                  
WADENA         FAIR      57  57 100 N5        29.98F                  
GLENWOOD       FAIR      64  63  94 N6        29.97F                  
APPLETON       PTCLDY    68  61  77 CALM      29.96R                  
BENSON         MOCLDY    70  63  78 CALM      29.97S                  
ORTONVILLE     CLOUDY    66  55  68 N7        29.97S                  
MADISON        CLEAR     66  63  88 N5        29.97S                  
WILLMAR        CLOUDY    66  64  94 N3        29.98S                  
$$
MNZ033>034-036-042>043-049>051-058-059-150600-
   Central Minnesota     
  
CITY           SKY/WX    TMP DP  RH WIND       PRES   REMARKS
ST CLOUD       FAIR      66  62  87 CALM      29.96R                  
SAUK CENTRE    CLOUDY    66  63  87 NE3       29.97S                  
AITKIN         FAIR      55  54  94 CALM      29.97S                  
PINE RIVER     FAIR      57  55  94 CALM      30.02R                  
BRAINERD       CLOUDY    66  59  78 N5        29.98S                  
STAPLES        FAIR      61  59  94 CALM      29.98F                  
LONG PRAIRIE   CLOUDY    63  61  94 CALM      29.98S                  
LITTLE FALLS   FAIR      64  61  88 CALM      29.97S                  
LITCHFIELD     MOCLDY    70  66  88 N3        29.97R                  
BUFFALO        CLOUDY    68  63  82 NE3       29.96S                  
MAPLE LAKE     CLOUDY    69  64  84 N3        29.97R                  
HUTCHINSON     CLOUDY    71  66  84 NE6       29.96S                  
$$
MNZ037-044-045-052-053-150600-
   East Central Minnesota   
  
CITY           SKY/WX    TMP DP  RH WIND       PRES   REMARKS
MORA           FAIR      64  61  88 CALM      29.97R                  
CAMBRIDGE      FAIR      68  61  77 CALM      29.95R                  
RUSH CITY      MOCLDY    63  60  90 CALM      29.94S                  
MOOSE LAKE     MOCLDY    64  59  82 N3        29.94S                  
HINCKLEY       FAIR      63  61  94 CALM      29.95S                  
CLOQUET        FAIR      63  55  77 NW6       29.96R                  
MCGREGOR       FAIR      61  55  82 NW3       29.97F                  
$$
MNZ071>073-080-081-089-090-097-098-150600-
   Southwest Minnesota   
  
CITY           SKY/WX    TMP DP  RH WIND       PRES   REMARKS
MONTEVIDEO     CLOUDY    68  64  88 CALM      29.97S                  
GRANITE FALLS  CLOUDY    70  65  85 NW5       29.98S                  
CANBY          CLOUDY    70  66  85 CALM      29.99S                  
MARSHALL       CLOUDY    68  64  87 N7        29.97S                  
REDWOOD FALLS  CLOUDY    70  66  87 N5        29.94S                  
OLIVIA         CLOUDY    70  63  78 NE5       29.95S                  
PIPESTONE      MOCLDY    66  64  94 E6        29.97S                  
WINDOM         PTCLDY    68  63  83 NW3       29.95R                  
WORTHINGTON    CLOUDY    69  67  93 N8        29.96F                  
JACKSON        PTCLDY    70  68  94 CALM      29.95S FOG              
TRACY          MOCLDY    67  64  89 CALM      29.96F                  
SLAYTON        RAIN      67  63  85 N5        29.98S                  
$$
MNZ065>067-074>077-082>085-091>093-150600-
   South Central Minnesota  
  
CITY           SKY/WX    TMP DP  RH WIND       PRES   REMARKS
MANKATO        MOCLDY    72  69  90 N8        29.94R                  
NEW ULM        PTCLDY    72  64  78 N6        29.93S                  
ST JAMES       CLOUDY    72  68  88 CALM      29.94S                  
FAIRMONT       MOCLDY    72  70  93 NW5       29.92F                  
GLENCOE        FAIR      70  64  82 N5        29.94S                  
FARIBAULT      MOCLDY    72  70  94 N6        29.92F                  
OWATONNA       FAIR      70  66  88 SE3       29.93S                  
WASECA         FAIR      68  64  88 CALM      29.94S                  
ALBERT LEA     FAIR      70  70 100 CALM      29.92F                  
$$
MNZ078>079-086>088-094>096-150600-
   Southeast Minnesota   
  
CITY           SKY/WX    TMP DP  RH WIND       PRES   REMARKS
ROCHESTER      FAIR      68  68 100 S5        29.94S FOG              
RED WING       FAIR      73  64  73 CALM      29.89F                  
STANTON        MOCLDY    72  68  88 NE5       29.90F                  
DODGE CENTER   FAIR      68  64  88 CALM      29.93F                  
WINONA         FAIR      73  70  88 CALM      29.92R                  
AUSTIN         FAIR      70  66  88 CALM      29.93S FOG              
PRESTON        FAIR      69  67  93 CALM      29.95R FOG              
$$
ABBREVIATIONS USED IN REMARKS
   TC - TEMPERATURES IN CELSIUS
  WCI - WIND CHILL INDEX
   HX - HEAT INDEX
  VSB - VISIBILITY 
$$